Time,TemperatureF,DewpointF,PressureIn,WindDirection,WindDirectionDegrees,WindSpeedMPH,WindSpeedGustMPH,Humidity,HourlyPrecipIn,Conditions,Clouds,dailyrainin,SoftwareType,DateUTC
2013-03-04 00:00:00,49.2,42.3,30.07,WNW,283,4.0,13.0,77,0.00,,---,0.03,VWS V14.01,2013-03-04 05:00:00,
2013-03-04 00:01:00,49.2,42.3,30.08,WNW,290,4.0,13.0,77,0.00,,---,0.03,VWS V14.01,2013-03-04 05:01:00,
2013-03-04 00:03:00,49.1,41.9,30.08,WNW,284,6.0,7.0,76,0.00,,---,0.00,VWS V14.01,2013-03-04 05:03:00,
2013-03-04 00:08:00,49.1,41.9,30.08,WNW,290,4.0,7.0,76,0.00,,---,0.00,VWS V14.01,2013-03-04 05:08:00,
2013-03-04 00:13:00,48.9,41.7,30.08,WNW,302,4.0,7.0,76,0.00,,---,0.00,VWS V14.01,2013-03-04 05:13:00,
2013-03-04 00:18:00,48.8,41.9,30.08,WNW,293,3.0,7.0,77,0.00,,---,0.00,VWS V14.01,2013-03-04 05:18:00,
2013-03-04 00:23:00,48.6,41.7,30.08,WNW,294,2.0,7.0,77,0.00,,---,0.00,VWS V14.01,2013-03-04 05:23:00,
2013-03-04 00:28:00,48.3,41.8,30.08,WNW,294,4.0,7.0,78,0.00,,---,0.00,VWS V14.01,2013-03-04 05:28:00,
2013-03-04 00:33:00,48.2,42.0,30.07,WNW,298,4.0,5.0,79,0.00,,---,0.00,VWS V14.01,2013-03-04 05:33:00,
2013-03-04 00:38:00,48.0,41.8,30.07,WNW,285,6.0,7.0,79,0.00,,---,0.00,VWS V14.01,2013-03-04 05:38:00,
2013-03-04 00:43:00,47.9,42.0,30.07,West,274,2.0,7.0,80,0.00,,---,0.00,VWS V14.01,2013-03-04 05:43:00,
2013-03-04 00:48:00,47.7,41.8,30.07,West,275,1.0,7.0,80,0.00,,---,0.00,VWS V14.01,2013-03-04 05:48:00,
2013-03-04 00:54:00,47.6,42.1,30.07,West,275,3.0,7.0,81,0.00,,---,0.00,VWS V14.01,2013-03-04 05:54:00,
2013-03-04 00:59:00,47.4,42.2,30.07,West,275,2.0,7.0,82,0.00,,---,0.00,VWS V14.01,2013-03-04 05:59:00,
2013-03-04 01:04:00,47.3,42.1,30.07,West,275,4.0,4.0,82,0.00,,---,0.00,VWS V14.01,2013-03-04 06:04:00,
2013-03-04 01:09:00,47.1,42.2,30.07,NNW,328,8.0,8.0,83,0.00,,---,0.00,VWS V14.01,2013-03-04 06:09:00,
2013-03-04 01:14:00,47.1,42.2,30.07,WNW,292,2.0,9.0,83,0.00,,---,0.00,VWS V14.01,2013-03-04 06:14:00,
2013-03-04 01:19:00,47.0,41.2,30.08,WNW,297,4.0,9.0,80,0.00,,---,0.00,VWS V14.01,2013-03-04 06:19:00,
2013-03-04 01:24:00,47.1,42.2,30.08,NW,325,10.0,10.0,83,0.00,,---,0.00,VWS V14.01,2013-03-04 06:24:00,
2013-03-04 01:29:00,47.1,42.2,30.08,NW,321,11.0,11.0,83,0.00,,---,0.00,VWS V14.01,2013-03-04 06:29:00,
2013-03-04 01:34:00,47.3,42.1,30.07,NNW,327,10.0,10.0,82,0.00,,---,0.00,VWS V14.01,2013-03-04 06:34:00,
2013-03-04 01:39:00,47.4,41.9,30.07,NNW,335,6.0,10.0,81,0.00,,---,0.00,VWS V14.01,2013-03-04 06:39:00,
2013-03-04 01:44:00,47.4,41.9,30.07,NNW,342,4.0,10.0,81,0.00,,---,0.00,VWS V14.01,2013-03-04 06:44:00,
2013-03-04 01:49:00,47.3,41.5,30.07,NW,313,6.0,12.0,80,0.00,,---,0.00,VWS V14.01,2013-03-04 06:49:00,
2013-03-04 01:54:00,47.3,41.5,30.07,NNW,331,4.0,12.0,80,0.00,,---,0.00,VWS V14.01,2013-03-04 06:54:00,
2013-03-04 01:59:00,47.3,41.1,30.07,NNW,342,3.0,12.0,79,0.00,,---,0.00,VWS V14.01,2013-03-04 06:59:00,
2013-03-04 02:04:00,47.3,40.8,30.07,NW,326,5.0,6.0,78,0.00,,---,0.00,VWS V14.01,2013-03-04 07:04:00,
2013-03-04 02:09:00,47.1,40.6,30.07,NW,325,9.0,9.0,78,0.00,,---,0.00,VWS V14.01,2013-03-04 07:09:00,
2013-03-04 02:14:00,47.1,40.3,30.07,NW,321,10.0,12.0,77,0.00,,---,0.00,VWS V14.01,2013-03-04 07:14:00,
2013-03-04 02:20:00,47.0,40.2,30.07,NNW,338,6.0,12.0,77,0.00,,---,0.00,VWS V14.01,2013-03-04 07:20:00,
2013-03-04 02:25:00,47.0,40.2,30.07,NNW,332,10.0,12.0,77,0.00,,---,0.00,VWS V14.01,2013-03-04 07:25:00,
2013-03-04 02:30:00,46.8,40.0,30.07,NNW,336,3.0,12.0,77,0.00,,---,0.00,VWS V14.01,2013-03-04 07:30:00,
2013-03-04 02:35:00,46.8,40.0,30.06,NNW,329,6.0,12.0,77,0.00,,---,0.00,VWS V14.01,2013-03-04 07:35:00,
2013-03-04 02:40:00,46.7,39.9,30.06,NNW,343,3.0,12.0,77,0.00,,---,0.00,VWS V14.01,2013-03-04 07:40:00,
2013-03-04 02:45:00,46.5,39.7,30.06,NNW,336,5.0,12.0,77,0.00,,---,0.00,VWS V14.01,2013-03-04 07:45:00,
2013-03-04 02:50:00,46.4,39.9,30.06,NNW,340,3.0,12.0,78,0.00,,---,0.00,VWS V14.01,2013-03-04 07:50:00,
2013-03-04 02:55:00,46.2,39.7,30.06,NNW,342,3.0,12.0,78,0.00,,---,0.00,VWS V14.01,2013-03-04 07:55:00,
2013-03-04 03:00:00,46.1,39.6,30.06,NNW,338,4.0,12.0,78,0.00,,---,0.00,VWS V14.01,2013-03-04 08:00:00,
2013-03-04 03:05:00,46.0,39.5,30.06,NNW,336,5.0,5.0,78,0.00,,---,0.00,VWS V14.01,2013-03-04 08:05:00,
2013-03-04 03:10:00,45.8,39.0,30.06,NNW,345,3.0,10.0,77,0.00,,---,0.00,VWS V14.01,2013-03-04 08:10:00,
2013-03-04 03:15:00,45.5,38.7,30.06,NNW,335,4.0,10.0,77,0.00,,---,0.00,VWS V14.01,2013-03-04 08:15:00,
2013-03-04 03:20:00,45.4,38.3,30.06,NNW,336,5.0,10.0,76,0.00,,---,0.00,VWS V14.01,2013-03-04 08:20:00,
2013-03-04 03:25:00,45.4,38.3,30.06,NNW,336,3.0,10.0,76,0.00,,---,0.00,VWS V14.01,2013-03-04 08:25:00,
2013-03-04 03:31:00,45.2,38.1,30.06,NNW,338,6.0,10.0,76,0.00,,---,0.00,VWS V14.01,2013-03-04 08:31:00,
2013-03-04 03:36:00,45.1,37.7,30.06,NNW,338,5.0,8.0,75,0.00,,---,0.00,VWS V14.01,2013-03-04 08:36:00,
2013-03-04 03:41:00,45.1,37.7,30.06,NNW,340,5.0,8.0,75,0.00,,---,0.00,VWS V14.01,2013-03-04 08:41:00,
2013-03-04 03:46:00,45.1,38.0,30.06,NNW,340,2.0,10.0,76,0.00,,---,0.00,VWS V14.01,2013-03-04 08:46:00,
2013-03-04 03:51:00,44.9,37.8,30.06,NNW,340,2.0,10.0,76,0.00,,---,0.00,VWS V14.01,2013-03-04 08:51:00,
2013-03-04 03:56:00,44.9,37.8,30.06,NW,315,6.0,10.0,76,0.00,,---,0.00,VWS V14.01,2013-03-04 08:56:00,
2013-03-04 04:01:00,44.8,37.7,30.06,NW,320,3.0,10.0,76,0.00,,---,0.00,VWS V14.01,2013-03-04 09:01:00,
2013-03-04 04:06:00,44.8,37.7,30.06,NW,325,3.0,6.0,76,0.00,,---,0.00,VWS V14.01,2013-03-04 09:06:00,
2013-03-04 04:11:00,44.8,37.7,30.06,NW,326,4.0,6.0,76,0.00,,---,0.00,VWS V14.01,2013-03-04 09:11:00,
2013-03-04 04:16:00,44.8,37.7,30.07,NNW,338,9.0,9.0,76,0.00,,---,0.00,VWS V14.01,2013-03-04 09:16:00,
2013-03-04 04:21:00,44.6,37.2,30.07,NNW,342,4.0,9.0,75,0.00,,---,0.00,VWS V14.01,2013-03-04 09:21:00,
2013-03-04 04:26:00,44.6,36.8,30.07,NNW,342,2.0,9.0,74,0.00,,---,0.00,VWS V14.01,2013-03-04 09:26:00,
2013-03-04 04:31:00,44.6,36.5,30.07,NNW,339,3.0,9.0,73,0.00,,---,0.00,VWS V14.01,2013-03-04 09:31:00,
2013-03-04 04:36:00,44.6,36.2,30.07,NW,323,0.0,7.0,72,0.00,,---,0.00,VWS V14.01,2013-03-04 09:36:00,
2013-03-04 04:42:00,44.6,36.2,30.07,NW,325,3.0,7.0,72,0.00,,---,0.00,VWS V14.01,2013-03-04 09:42:00,
2013-03-04 04:47:00,44.6,36.2,30.08,NW,326,2.0,7.0,72,0.00,,---,0.00,VWS V14.01,2013-03-04 09:47:00,
2013-03-04 04:52:00,44.6,36.2,30.08,NW,326,3.0,7.0,72,0.00,,---,0.00,VWS V14.01,2013-03-04 09:52:00,
2013-03-04 04:57:00,44.6,36.5,30.08,NNW,327,5.0,7.0,73,0.00,,---,0.00,VWS V14.01,2013-03-04 09:57:00,
2013-03-04 05:02:00,44.5,36.4,30.08,NNW,327,7.0,7.0,73,0.00,,---,0.00,VWS V14.01,2013-03-04 10:02:00,
2013-03-04 05:07:00,44.3,36.5,30.08,NNW,327,7.0,7.0,74,0.00,,---,0.00,VWS V14.01,2013-03-04 10:07:00,
2013-03-04 05:12:00,44.3,36.5,30.08,NW,320,5.0,7.0,74,0.00,,---,0.00,VWS V14.01,2013-03-04 10:12:00,
2013-03-04 05:17:00,44.3,36.9,30.09,NW,321,3.0,7.0,75,0.00,,---,0.00,VWS V14.01,2013-03-04 10:17:00,
2013-03-04 05:22:00,44.2,36.8,30.09,NW,325,9.0,9.0,75,0.00,,---,0.00,VWS V14.01,2013-03-04 10:22:00,
2013-03-04 05:27:00,44.1,36.7,30.09,NNW,327,2.0,9.0,75,0.00,,---,0.00,VWS V14.01,2013-03-04 10:27:00,
2013-03-04 05:32:00,44.1,37.0,30.09,NW,304,3.0,9.0,76,0.00,,---,0.00,VWS V14.01,2013-03-04 10:32:00,
2013-03-04 05:37:00,43.9,36.8,30.09,NW,311,1.0,7.0,76,0.00,,---,0.00,VWS V14.01,2013-03-04 10:37:00,
2013-03-04 05:42:00,43.9,36.8,30.09,NW,311,2.0,7.0,76,0.00,,---,0.00,VWS V14.01,2013-03-04 10:42:00,
2013-03-04 05:47:00,43.8,37.1,30.09,NW,311,2.0,7.0,77,0.00,,---,0.00,VWS V14.01,2013-03-04 10:47:00,
2013-03-04 05:52:00,43.6,36.9,30.09,NW,311,1.0,7.0,77,0.00,,---,0.00,VWS V14.01,2013-03-04 10:52:00,
2013-03-04 05:57:00,43.6,37.2,30.09,NW,311,0.0,7.0,78,0.00,,---,0.00,VWS V14.01,2013-03-04 10:57:00,
2013-03-04 06:03:00,43.5,37.1,30.10,NW,311,0.0,1.0,78,0.00,,---,0.00,VWS V14.01,2013-03-04 11:03:00,
2013-03-04 06:08:00,43.5,37.1,30.10,NW,311,0.0,3.0,78,0.00,,---,0.00,VWS V14.01,2013-03-04 11:08:00,
2013-03-04 06:13:00,43.3,36.9,30.10,NW,311,2.0,3.0,78,0.00,,---,0.00,VWS V14.01,2013-03-04 11:13:00,
2013-03-04 06:18:00,43.2,37.1,30.10,NW,311,1.0,3.0,79,0.00,,---,0.00,VWS V14.01,2013-03-04 11:18:00,
2013-03-04 06:23:00,43.2,37.1,30.10,NW,311,1.0,3.0,79,0.00,,---,0.00,VWS V14.01,2013-03-04 11:23:00,
2013-03-04 06:28:00,43.1,37.0,30.10,NW,311,0.0,3.0,79,0.00,,---,0.00,VWS V14.01,2013-03-04 11:28:00,
2013-03-04 06:33:00,43.1,37.4,30.11,NW,311,0.0,0.0,80,0.00,,---,0.00,VWS V14.01,2013-03-04 11:33:00,
2013-03-04 06:38:00,43.1,37.4,30.11,NW,311,1.0,2.0,80,0.00,,---,0.00,VWS V14.01,2013-03-04 11:38:00,
2013-03-04 06:43:00,42.9,37.2,30.11,NW,311,2.0,2.0,80,0.00,,---,0.00,VWS V14.01,2013-03-04 11:43:00,
2013-03-04 06:48:00,42.9,37.2,30.12,NW,311,3.0,3.0,80,0.00,,---,0.00,VWS V14.01,2013-03-04 11:48:00,
2013-03-04 06:53:00,42.9,37.2,30.12,NW,311,1.0,3.0,80,0.00,,---,0.00,VWS V14.01,2013-03-04 11:53:00,
2013-03-04 06:58:00,42.9,37.2,30.12,NW,311,3.0,3.0,80,0.00,,---,0.00,VWS V14.01,2013-03-04 11:58:00,
2013-03-04 07:03:00,42.9,37.5,30.12,NW,311,1.0,4.0,81,0.00,,---,0.00,VWS V14.01,2013-03-04 12:03:00,
2013-03-04 07:08:00,43.1,37.7,30.12,NW,311,1.0,4.0,81,0.00,,---,0.00,VWS V14.01,2013-03-04 12:08:00,
2013-03-04 07:14:00,43.1,38.0,30.12,NW,311,3.0,4.0,82,0.00,,---,0.00,VWS V14.01,2013-03-04 12:14:00,
2013-03-04 07:19:00,43.3,38.2,30.12,NW,312,5.0,5.0,82,0.00,,---,0.00,VWS V14.01,2013-03-04 12:19:00,
2013-03-04 07:24:00,43.5,38.4,30.12,NW,315,6.0,7.0,82,0.00,,---,0.00,VWS V14.01,2013-03-04 12:24:00,
2013-03-04 07:29:00,43.9,38.1,30.12,NNW,337,6.0,8.0,80,0.00,,---,0.00,VWS V14.01,2013-03-04 12:29:00,
2013-03-04 07:34:00,44.2,37.8,30.13,NNW,341,5.0,9.0,78,0.00,,---,0.00,VWS V14.01,2013-03-04 12:34:00,
2013-03-04 07:39:00,44.8,38.0,30.13,NNW,341,0.0,9.0,77,0.00,,---,0.00,VWS V14.01,2013-03-04 12:39:00,
2013-03-04 07:44:00,45.2,38.1,30.13,NNW,343,3.0,9.0,76,0.00,,---,0.00,VWS V14.01,2013-03-04 12:44:00,
2013-03-04 07:49:00,45.7,38.2,30.13,NNW,338,3.0,9.0,75,0.00,,---,0.00,VWS V14.01,2013-03-04 12:49:00,
2013-03-04 07:54:00,46.2,38.4,30.13,NNW,338,4.0,9.0,74,0.00,,---,0.00,VWS V14.01,2013-03-04 12:54:00,
2013-03-04 07:59:00,46.8,38.3,30.13,NNW,338,2.0,9.0,72,0.00,,---,0.00,VWS V14.01,2013-03-04 12:59:00,
2013-03-04 08:04:00,47.3,38.0,30.14,NNW,340,5.0,5.0,70,0.00,,---,0.00,VWS V14.01,2013-03-04 13:04:00,
2013-03-04 08:09:00,47.9,38.2,30.14,NNW,341,5.0,7.0,69,0.00,,---,0.00,VWS V14.01,2013-03-04 13:09:00,
2013-03-04 08:14:00,48.3,38.2,30.14,NNW,339,7.0,7.0,68,0.00,,---,0.00,VWS V14.01,2013-03-04 13:14:00,
2013-03-04 08:19:00,48.8,38.3,30.14,NNW,340,5.0,7.0,67,0.00,,---,0.00,VWS V14.01,2013-03-04 13:19:00,
2013-03-04 08:24:00,49.4,38.5,30.14,NNW,343,9.0,9.0,66,0.00,,---,0.00,VWS V14.01,2013-03-04 13:24:00,
2013-03-04 08:29:00,49.6,37.9,30.14,NNW,338,5.0,9.0,64,0.00,,---,0.00,VWS V14.01,2013-03-04 13:29:00,
2013-03-04 08:34:00,50.1,38.4,30.14,NW,325,3.0,11.0,64,0.00,,---,0.00,VWS V14.01,2013-03-04 13:34:00,
2013-03-04 08:40:00,50.4,38.3,30.14,NNW,339,4.0,11.0,63,0.00,,---,0.00,VWS V14.01,2013-03-04 13:40:00,
2013-03-04 08:45:00,50.8,38.3,30.14,NNW,338,1.0,11.0,62,0.00,,---,0.00,VWS V14.01,2013-03-04 13:45:00,
2013-03-04 08:50:00,51.3,38.3,30.14,NNW,333,9.0,11.0,61,0.00,,---,0.00,VWS V14.01,2013-03-04 13:50:00,
2013-03-04 08:55:00,51.9,40.5,30.14,NNW,339,4.0,11.0,65,0.00,,---,0.00,VWS V14.01,2013-03-04 13:55:00,
2013-03-04 09:00:00,52.3,38.4,30.14,NW,326,3.0,11.0,59,0.00,,---,0.00,VWS V14.01,2013-03-04 14:00:00,
2013-03-04 09:05:00,52.9,39.0,30.15,NNW,334,4.0,7.0,59,0.00,,---,0.00,VWS V14.01,2013-03-04 14:05:00,
2013-03-04 09:10:00,53.2,38.4,30.15,North,355,2.0,10.0,57,0.00,,---,0.00,VWS V14.01,2013-03-04 14:10:00,
2013-03-04 09:15:00,53.3,38.0,30.15,NW,315,12.0,12.0,56,0.00,,---,0.00,VWS V14.01,2013-03-04 14:15:00,
2013-03-04 09:20:00,53.5,38.2,30.15,NNW,345,6.0,12.0,56,0.00,,---,0.00,VWS V14.01,2013-03-04 14:20:00,
2013-03-04 09:25:00,53.6,37.8,30.15,NNW,342,6.0,12.0,55,0.00,,---,0.00,VWS V14.01,2013-03-04 14:25:00,
2013-03-04 09:30:00,53.9,38.6,30.15,NNW,331,4.0,12.0,56,0.00,,---,0.00,VWS V14.01,2013-03-04 14:30:00,
2013-03-04 09:35:00,54.4,38.6,30.14,NNW,329,6.0,11.0,55,0.00,,---,0.00,VWS V14.01,2013-03-04 14:35:00,
2013-03-04 09:40:00,55.0,38.7,30.14,NW,326,10.0,11.0,54,0.00,,---,0.00,VWS V14.01,2013-03-04 14:40:00,
2013-03-04 09:45:00,55.0,38.2,30.14,NNW,331,9.0,14.0,53,0.00,,---,0.00,VWS V14.01,2013-03-04 14:45:00,
2013-03-04 09:50:00,55.3,38.0,30.14,NNW,344,4.0,14.0,52,0.00,,---,0.00,VWS V14.01,2013-03-04 14:50:00,
2013-03-04 09:55:00,55.7,38.8,30.14,NW,326,7.0,14.0,53,0.00,,---,0.00,VWS V14.01,2013-03-04 14:55:00,
2013-03-04 10:00:00,56.2,38.8,30.14,NNW,334,4.0,14.0,52,0.00,,---,0.00,VWS V14.01,2013-03-04 15:00:00,
2013-03-04 10:05:00,56.7,38.8,30.14,NNW,329,7.0,10.0,51,0.00,,---,0.00,VWS V14.01,2013-03-04 15:05:00,
2013-03-04 10:10:00,57.2,38.2,30.14,NNW,344,6.0,12.0,49,0.00,,---,0.00,VWS V14.01,2013-03-04 15:10:00,
2013-03-04 10:15:00,57.6,39.6,30.14,NNW,335,9.0,12.0,51,0.00,,---,0.00,VWS V14.01,2013-03-04 15:15:00,
2013-03-04 10:21:00,58.0,39.5,30.14,NNW,346,7.0,12.0,50,0.00,,---,0.00,VWS V14.01,2013-03-04 15:21:00,
2013-03-04 10:26:00,58.1,38.5,30.14,NNW,336,8.0,12.0,48,0.00,,---,0.00,VWS V14.01,2013-03-04 15:26:00,
2013-03-04 10:31:00,58.3,38.7,30.14,NNW,348,4.0,12.0,48,0.00,,---,0.00,VWS V14.01,2013-03-04 15:31:00,
2013-03-04 10:36:00,58.7,39.1,30.14,NE,40,9.0,9.0,48,0.00,,---,0.00,VWS V14.01,2013-03-04 15:36:00,
2013-03-04 10:41:00,58.9,38.7,30.14,NNW,332,3.0,12.0,47,0.00,,---,0.00,VWS V14.01,2013-03-04 15:41:00,
2013-03-04 10:46:00,59.3,39.1,30.14,North,349,2.0,12.0,47,0.00,,---,0.00,VWS V14.01,2013-03-04 15:46:00,
2013-03-04 10:51:00,59.8,40.1,30.14,NNW,329,7.0,14.0,48,0.00,,---,0.00,VWS V14.01,2013-03-04 15:51:00,
2013-03-04 10:56:00,60.2,38.8,30.14,NNW,339,1.0,14.0,45,0.00,,---,0.00,VWS V14.01,2013-03-04 15:56:00,
2013-03-04 11:01:00,60.7,39.3,30.14,NNW,338,3.0,14.0,45,0.00,,---,0.00,VWS V14.01,2013-03-04 16:01:00,
2013-03-04 11:06:00,60.9,38.9,30.14,NW,323,5.0,11.0,44,0.00,,---,0.00,VWS V14.01,2013-03-04 16:06:00,
2013-03-04 11:11:00,61.2,39.1,30.14,NNW,331,11.0,11.0,44,0.00,,---,0.00,VWS V14.01,2013-03-04 16:11:00,
2013-03-04 11:16:00,61.5,39.4,30.14,NW,324,6.0,11.0,44,0.00,,---,0.00,VWS V14.01,2013-03-04 16:16:00,
2013-03-04 11:21:00,61.6,38.3,30.14,NW,323,5.0,11.0,42,0.00,,---,0.00,VWS V14.01,2013-03-04 16:21:00,
2013-03-04 11:26:00,61.8,38.5,30.14,NNW,343,7.0,11.0,42,0.00,,---,0.00,VWS V14.01,2013-03-04 16:26:00,
2013-03-04 11:31:00,62.1,38.1,30.14,NNW,348,1.0,11.0,41,0.00,,---,0.00,VWS V14.01,2013-03-04 16:31:00,
2013-03-04 11:37:00,62.0,38.7,30.14,WNW,293,2.0,9.0,42,0.00,,---,0.00,VWS V14.01,2013-03-04 16:37:00,
2013-03-04 11:42:00,62.1,37.5,30.14,WNW,294,2.0,9.0,40,0.00,,---,0.00,VWS V14.01,2013-03-04 16:42:00,
2013-03-04 11:47:00,62.6,38.6,30.13,WNW,294,2.0,9.0,41,0.00,,---,0.00,VWS V14.01,2013-03-04 16:47:00,
2013-03-04 11:52:00,63.2,40.3,30.13,NNW,338,1.0,9.0,43,0.00,,---,0.00,VWS V14.01,2013-03-04 16:52:00,
2013-03-04 11:57:00,63.7,38.3,30.13,NW,319,3.0,9.0,39,0.00,,---,0.00,VWS V14.01,2013-03-04 16:57:00,
2013-03-04 12:02:00,64.0,38.6,30.12,NNW,327,4.0,9.0,39,0.00,,---,0.00,VWS V14.01,2013-03-04 17:02:00,
2013-03-04 12:07:00,64.2,39.4,30.12,WNW,297,4.0,4.0,40,0.00,,---,0.00,VWS V14.01,2013-03-04 17:07:00,
2013-03-04 12:12:00,64.3,38.2,30.12,NNE,18,0.0,4.0,38,0.00,,---,0.00,VWS V14.01,2013-03-04 17:12:00,
2013-03-04 12:17:00,64.3,38.2,30.11,North,355,5.0,5.0,38,0.00,,---,0.00,VWS V14.01,2013-03-04 17:17:00,
2013-03-04 12:22:00,64.8,39.3,30.11,NNW,347,3.0,6.0,39,0.00,,---,0.00,VWS V14.01,2013-03-04 17:22:00,
2013-03-04 12:27:00,65.5,39.2,30.11,NW,326,5.0,6.0,38,0.00,,---,0.00,VWS V14.01,2013-03-04 17:27:00,
2013-03-04 12:32:00,65.5,39.9,30.10,WNW,295,2.0,7.0,39,0.00,,---,0.00,VWS V14.01,2013-03-04 17:32:00,
2013-03-04 12:37:00,65.0,40.1,30.10,WNW,296,1.0,5.0,40,0.00,,---,0.00,VWS V14.01,2013-03-04 17:37:00,
2013-03-04 12:42:00,65.8,39.5,30.10,WNW,297,2.0,5.0,38,0.00,,---,0.00,VWS V14.01,2013-03-04 17:42:00,
2013-03-04 12:47:00,66.8,40.4,30.10,NW,317,3.0,7.0,38,0.00,,---,0.00,VWS V14.01,2013-03-04 17:47:00,
2013-03-04 12:52:00,67.1,36.3,30.10,NW,317,0.0,7.0,32,0.00,,---,0.00,VWS V14.01,2013-03-04 17:52:00,
2013-03-04 12:57:00,67.6,41.1,30.10,NW,317,1.0,7.0,38,0.00,,---,0.00,VWS V14.01,2013-03-04 17:57:00,
2013-03-04 13:02:00,67.8,38.4,30.09,NW,319,1.0,7.0,34,0.00,,---,0.00,VWS V14.01,2013-03-04 18:02:00,
2013-03-04 13:07:00,68.4,37.4,30.09,NW,321,3.0,3.0,32,0.00,,---,0.00,VWS V14.01,2013-03-04 18:07:00,
2013-03-04 13:12:00,68.8,37.0,30.09,NW,321,0.0,4.0,31,0.00,,---,0.00,VWS V14.01,2013-03-04 18:12:00,
2013-03-04 13:17:00,69.4,41.3,30.09,NW,323,5.0,5.0,36,0.00,,---,0.00,VWS V14.01,2013-03-04 18:17:00,
2013-03-04 13:23:00,69.9,38.7,30.09,NW,323,0.0,5.0,32,0.00,,---,0.00,VWS V14.01,2013-03-04 18:23:00,
2013-03-04 13:28:00,70.4,38.3,30.09,NNW,331,1.0,8.0,31,0.00,,---,0.00,VWS V14.01,2013-03-04 18:28:00,
2013-03-04 13:29:00,70.4,39.2,30.09,NE,43,2.0,8.0,32,0.00,,---,0.00,VWS V14.01,2013-03-04 18:29:00,
2013-03-04 13:30:00,70.4,39.2,30.09,NE,44,3.0,8.0,32,0.00,,---,0.00,VWS V14.01,2013-03-04 18:30:00,
2013-03-04 13:31:00,70.4,36.7,30.09,NE,44,2.0,8.0,29,0.00,,---,0.00,VWS V14.01,2013-03-04 18:31:00,
2013-03-04 13:36:00,70.4,39.2,30.08,NNE,26,4.0,6.0,32,0.00,,---,0.00,VWS V14.01,2013-03-04 18:36:00,
2013-03-04 13:41:00,70.6,35.9,30.08,NNE,19,2.0,6.0,28,0.00,,---,0.00,VWS V14.01,2013-03-04 18:41:00,
2013-03-04 13:46:00,70.6,35.9,30.08,WNW,292,3.0,6.0,28,0.00,,---,0.00,VWS V14.01,2013-03-04 18:46:00,
2013-03-04 13:52:00,69.9,35.3,30.08,WNW,289,3.0,6.0,28,0.00,,---,0.00,VWS V14.01,2013-03-04 18:52:00,
2013-03-04 13:57:00,69.3,33.9,30.08,WNW,292,2.0,6.0,27,0.00,,---,0.00,VWS V14.01,2013-03-04 18:57:00,
2013-03-04 14:02:00,68.3,34.8,30.08,WNW,290,3.0,6.0,29,0.00,,---,0.00,VWS V14.01,2013-03-04 19:02:00,
2013-03-04 14:07:00,68.3,34.8,30.08,WNW,290,0.0,3.0,29,0.00,,---,0.00,VWS V14.01,2013-03-04 19:07:00,
2013-03-04 14:12:00,69.4,36.7,30.08,NNW,338,6.0,7.0,30,0.00,,---,0.00,VWS V14.01,2013-03-04 19:12:00,
2013-03-04 14:17:00,70.6,36.8,30.07,NNW,338,3.0,7.0,29,0.00,,---,0.00,VWS V14.01,2013-03-04 19:17:00,
2013-03-04 14:22:00,71.1,36.4,30.07,NNW,338,0.0,7.0,28,0.00,,---,0.00,VWS V14.01,2013-03-04 19:22:00,
2013-03-04 14:27:00,71.6,36.8,30.07,NNW,338,3.0,7.0,28,0.00,,---,0.00,VWS V14.01,2013-03-04 19:27:00,
2013-03-04 14:32:00,72.3,37.4,30.07,NNW,338,4.0,4.0,28,0.00,,---,0.00,VWS V14.01,2013-03-04 19:32:00,
2013-03-04 14:37:00,72.3,34.5,30.07,NNW,338,0.0,4.0,25,0.00,,---,0.00,VWS V14.01,2013-03-04 19:37:00,
2013-03-04 14:43:00,72.0,36.2,30.07,NNW,334,1.0,4.0,27,0.00,,---,0.00,VWS V14.01,2013-03-04 19:43:00,
2013-03-04 14:48:00,71.8,37.0,30.06,WNW,296,4.0,4.0,28,0.00,,---,0.00,VWS V14.01,2013-03-04 19:48:00,
2013-03-04 14:53:00,72.1,38.1,30.06,NNW,344,2.0,5.0,29,0.00,,---,0.00,VWS V14.01,2013-03-04 19:53:00,
2013-03-04 14:58:00,72.7,38.6,30.06,NNW,344,2.0,5.0,29,0.00,,---,0.00,VWS V14.01,2013-03-04 19:58:00,
2013-03-04 15:03:00,73.3,36.4,30.06,NNW,344,1.0,2.0,26,0.00,,---,0.00,VWS V14.01,2013-03-04 20:03:00,
2013-03-04 15:08:00,73.2,35.3,30.06,NE,50,0.0,5.0,25,0.00,,---,0.00,VWS V14.01,2013-03-04 20:08:00,
2013-03-04 15:13:00,72.8,36.9,30.06,NE,37,5.0,5.0,27,0.00,,---,0.00,VWS V14.01,2013-03-04 20:13:00,
2013-03-04 15:18:00,71.5,37.6,30.06,NNE,17,1.0,5.0,29,0.00,,---,0.00,VWS V14.01,2013-03-04 20:18:00,
2013-03-04 15:23:00,71.8,37.0,30.06,NNW,343,3.0,5.0,28,0.00,,---,0.00,VWS V14.01,2013-03-04 20:23:00,
2013-03-04 15:28:00,72.3,36.5,30.06,NNW,343,1.0,5.0,27,0.00,,---,0.00,VWS V14.01,2013-03-04 20:28:00,
2013-03-04 15:33:00,73.0,37.1,30.06,NNW,342,2.0,5.0,27,0.00,,---,0.00,VWS V14.01,2013-03-04 20:33:00,
2013-03-04 15:38:00,73.3,36.4,30.06,NNW,342,3.0,5.0,26,0.00,,---,0.00,VWS V14.01,2013-03-04 20:38:00,
2013-03-04 15:44:00,73.3,36.4,30.06,NNW,340,0.0,5.0,26,0.00,,---,0.00,VWS V14.01,2013-03-04 20:44:00,
2013-03-04 15:49:00,73.3,37.3,30.05,NNW,340,1.0,5.0,27,0.00,,---,0.00,VWS V14.01,2013-03-04 20:49:00,
2013-03-04 15:54:00,72.7,35.9,30.05,NNW,329,3.0,5.0,26,0.00,,---,0.00,VWS V14.01,2013-03-04 20:54:00,
2013-03-04 15:59:00,72.5,35.7,30.05,NNW,333,2.0,5.0,26,0.00,,---,0.00,VWS V14.01,2013-03-04 20:59:00,
2013-03-04 16:04:00,72.7,37.8,30.05,NNW,336,1.0,6.0,28,0.00,,---,0.00,VWS V14.01,2013-03-04 21:04:00,
2013-03-04 16:09:00,73.0,38.0,30.05,NNW,336,3.0,6.0,28,0.00,,---,0.00,VWS V14.01,2013-03-04 21:09:00,
2013-03-04 16:14:00,73.3,37.3,30.05,NNW,336,2.0,6.0,27,0.00,,---,0.00,VWS V14.01,2013-03-04 21:14:00,
2013-03-04 16:19:00,73.2,37.2,30.06,NNW,336,1.0,6.0,27,0.00,,---,0.00,VWS V14.01,2013-03-04 21:19:00,
2013-03-04 16:24:00,73.2,37.2,30.06,NNW,336,0.0,6.0,27,0.00,,---,0.00,VWS V14.01,2013-03-04 21:24:00,
2013-03-04 16:29:00,73.2,37.2,30.06,NNW,344,5.0,6.0,27,0.00,,---,0.00,VWS V14.01,2013-03-04 21:29:00,
2013-03-04 16:34:00,73.0,38.0,30.06,NNW,344,5.0,5.0,28,0.00,,---,0.00,VWS V14.01,2013-03-04 21:34:00,
2013-03-04 16:39:00,73.0,38.0,30.06,NNW,346,0.0,5.0,28,0.00,,---,0.00,VWS V14.01,2013-03-04 21:39:00,
2013-03-04 16:45:00,73.0,38.0,30.06,NNW,346,2.0,5.0,28,0.00,,---,0.00,VWS V14.01,2013-03-04 21:45:00,
2013-03-04 16:50:00,72.7,38.6,30.05,NNE,23,5.0,6.0,29,0.00,,---,0.00,VWS V14.01,2013-03-04 21:50:00,
2013-03-04 16:55:00,71.8,38.7,30.05,ENE,62,6.0,6.0,30,0.00,,---,0.00,VWS V14.01,2013-03-04 21:55:00,
2013-03-04 17:00:00,71.3,39.1,30.05,ENE,67,0.0,6.0,31,0.00,,---,0.00,VWS V14.01,2013-03-04 22:00:00,
2013-03-04 17:05:00,70.8,42.5,30.05,ENE,76,5.0,5.0,36,0.00,,---,0.00,VWS V14.01,2013-03-04 22:05:00,
2013-03-04 17:10:00,70.4,42.2,30.05,East,80,2.0,5.0,36,0.00,,---,0.00,VWS V14.01,2013-03-04 22:10:00,
2013-03-04 17:15:00,70.1,41.9,30.05,East,80,2.0,5.0,36,0.00,,---,0.00,VWS V14.01,2013-03-04 22:15:00,
2013-03-04 17:20:00,69.8,43.1,30.06,East,84,4.0,6.0,38,0.00,,---,0.00,VWS V14.01,2013-03-04 22:20:00,
2013-03-04 17:25:00,69.4,42.7,30.06,East,84,4.0,6.0,38,0.00,,---,0.00,VWS V14.01,2013-03-04 22:25:00,
2013-03-04 17:30:00,68.9,43.0,30.06,ENE,69,4.0,7.0,39,0.00,,---,0.00,VWS V14.01,2013-03-04 22:30:00,
2013-03-04 17:35:00,68.1,43.5,30.06,ENE,73,3.0,5.0,41,0.00,,---,0.00,VWS V14.01,2013-03-04 22:35:00,
2013-03-04 17:40:00,67.6,43.1,30.06,ENE,71,1.0,7.0,41,0.00,,---,0.00,VWS V14.01,2013-03-04 22:40:00,
2013-03-04 17:45:00,67.3,44.1,30.06,ENE,70,3.0,7.0,43,0.00,,---,0.00,VWS V14.01,2013-03-04 22:45:00,
2013-03-04 17:51:00,66.9,43.7,30.07,ENE,71,3.0,7.0,43,0.00,,---,0.00,VWS V14.01,2013-03-04 22:51:00,
2013-03-04 17:56:00,66.4,43.2,30.07,ENE,71,3.0,7.0,43,0.00,,---,0.00,VWS V14.01,2013-03-04 22:56:00,
2013-03-04 18:01:00,65.8,43.3,30.07,ENE,67,3.0,7.0,44,0.00,,---,0.00,VWS V14.01,2013-03-04 23:01:00,
2013-03-04 18:06:00,65.2,42.8,30.07,ENE,72,2.0,7.0,44,0.00,,---,0.00,VWS V14.01,2013-03-04 23:06:00,
2013-03-04 18:11:00,64.8,42.4,30.07,ENE,72,3.0,7.0,44,0.00,,---,0.00,VWS V14.01,2013-03-04 23:11:00,
2013-03-04 18:16:00,64.2,42.4,30.08,ENE,72,1.0,7.0,45,0.00,,---,0.00,VWS V14.01,2013-03-04 23:16:00,
2013-03-04 18:21:00,63.9,42.2,30.08,ENE,71,3.0,7.0,45,0.00,,---,0.00,VWS V14.01,2013-03-04 23:21:00,
2013-03-04 18:26:00,63.4,41.7,30.08,ENE,71,1.0,7.0,45,0.00,,---,0.00,VWS V14.01,2013-03-04 23:26:00,
2013-03-04 18:31:00,63.1,42.0,30.08,ENE,72,2.0,7.0,46,0.00,,---,0.00,VWS V14.01,2013-03-04 23:31:00,
2013-03-04 18:36:00,62.7,41.1,30.08,ENE,73,2.0,4.0,45,0.00,,---,0.00,VWS V14.01,2013-03-04 23:36:00,
2013-03-04 18:41:00,62.4,41.4,30.08,ENE,73,1.0,4.0,46,0.00,,---,0.00,VWS V14.01,2013-03-04 23:41:00,
2013-03-04 18:47:00,62.3,41.3,30.08,ENE,73,4.0,4.0,46,0.00,,---,0.00,VWS V14.01,2013-03-04 23:47:00,
2013-03-04 18:52:00,62.0,40.4,30.08,ENE,73,2.0,4.0,45,0.00,,---,0.00,VWS V14.01,2013-03-04 23:52:00,
2013-03-04 18:57:00,61.6,40.1,30.08,ENE,73,0.0,4.0,45,0.00,,---,0.00,VWS V14.01,2013-03-04 23:57:00,
2013-03-04 19:02:00,61.5,40.0,30.09,ENE,73,0.0,4.0,45,0.00,,---,0.00,VWS V14.01,2013-03-05 00:02:00,
2013-03-04 19:07:00,61.2,37.3,30.09,ENE,73,1.0,4.0,41,0.00,,---,0.00,VWS V14.01,2013-03-05 00:07:00,
2013-03-04 19:12:00,61.0,36.5,30.09,ENE,73,1.0,4.0,40,0.00,,---,0.00,VWS V14.01,2013-03-05 00:12:00,
2013-03-04 19:17:00,60.7,35.0,30.08,ENE,73,0.0,4.0,38,0.00,,---,0.00,VWS V14.01,2013-03-05 00:17:00,
2013-03-04 19:22:00,60.5,34.8,30.08,ENE,73,1.0,4.0,38,0.00,,---,0.00,VWS V14.01,2013-03-05 00:22:00,
2013-03-04 19:27:00,60.4,34.0,30.08,ENE,73,0.0,4.0,37,0.00,,---,0.00,VWS V14.01,2013-03-05 00:27:00,
2013-03-04 19:32:00,60.2,34.5,30.09,ENE,73,1.0,4.0,38,0.00,,---,0.00,VWS V14.01,2013-03-05 00:32:00,
2013-03-04 19:37:00,59.9,35.5,30.09,ENE,73,0.0,1.0,40,0.00,,---,0.00,VWS V14.01,2013-03-05 00:37:00,
2013-03-04 19:42:00,59.8,35.5,30.09,ENE,73,0.0,3.0,40,0.00,,---,0.00,VWS V14.01,2013-03-05 00:42:00,
2013-03-04 19:47:00,59.6,35.3,30.09,ENE,73,0.0,3.0,40,0.00,,---,0.00,VWS V14.01,2013-03-05 00:47:00,
2013-03-04 19:52:00,59.5,37.0,30.09,ENE,73,1.0,3.0,43,0.00,,---,0.00,VWS V14.01,2013-03-05 00:52:00,
2013-03-04 19:57:00,59.2,35.5,30.09,ENE,73,0.0,3.0,41,0.00,,---,0.00,VWS V14.01,2013-03-05 00:57:00,
2013-03-04 20:03:00,59.0,36.0,30.10,ENE,73,0.0,1.0,42,0.00,,---,0.00,VWS V14.01,2013-03-05 01:03:00,
2013-03-04 20:08:00,58.7,35.7,30.10,ENE,73,0.0,1.0,42,0.00,,---,0.00,VWS V14.01,2013-03-05 01:08:00,
2013-03-04 20:13:00,58.6,36.8,30.10,ENE,73,0.0,1.0,44,0.00,,---,0.00,VWS V14.01,2013-03-05 01:13:00,
2013-03-04 20:18:00,58.4,36.6,30.10,ENE,73,0.0,1.0,44,0.00,,---,0.00,VWS V14.01,2013-03-05 01:18:00,
2013-03-04 20:23:00,58.1,38.5,30.10,ENE,73,0.0,1.0,48,0.00,,---,0.00,VWS V14.01,2013-03-05 01:23:00,
2013-03-04 20:28:00,57.8,37.7,30.10,ENE,73,0.0,1.0,47,0.00,,---,0.00,VWS V14.01,2013-03-05 01:28:00,
2013-03-04 20:33:00,57.5,38.0,30.11,ENE,73,0.0,0.0,48,0.00,,---,0.00,VWS V14.01,2013-03-05 01:33:00,
2013-03-04 20:38:00,57.2,38.2,30.11,ENE,73,0.0,0.0,49,0.00,,---,0.00,VWS V14.01,2013-03-05 01:38:00,
2013-03-04 20:43:00,57.0,38.6,30.11,ENE,73,0.0,0.0,50,0.00,,---,0.00,VWS V14.01,2013-03-05 01:43:00,
2013-03-04 20:48:00,56.6,39.2,30.11,ENE,73,0.0,0.0,52,0.00,,---,0.00,VWS V14.01,2013-03-05 01:48:00,
2013-03-04 20:53:00,56.3,39.4,30.11,ENE,73,0.0,0.0,53,0.00,,---,0.00,VWS V14.01,2013-03-05 01:53:00,
2013-03-04 20:58:00,56.0,39.6,30.11,ENE,73,0.0,0.0,54,0.00,,---,0.00,VWS V14.01,2013-03-05 01:58:00,
2013-03-04 21:03:00,55.7,38.8,30.11,ENE,73,0.0,0.0,53,0.00,,---,0.00,VWS V14.01,2013-03-05 02:03:00,
2013-03-04 21:08:00,55.4,38.6,30.11,ENE,73,0.0,0.0,53,0.00,,---,0.00,VWS V14.01,2013-03-05 02:08:00,
2013-03-04 21:14:00,55.3,39.4,30.11,ENE,73,0.0,0.0,55,0.00,,---,0.00,VWS V14.01,2013-03-05 02:14:00,
2013-03-04 21:19:00,55.1,40.2,30.11,ENE,73,0.0,0.0,57,0.00,,---,0.00,VWS V14.01,2013-03-05 02:19:00,
2013-03-04 21:24:00,54.8,39.9,30.11,ENE,73,0.0,0.0,57,0.00,,---,0.00,VWS V14.01,2013-03-05 02:24:00,
2013-03-04 21:29:00,54.7,40.2,30.11,ENE,73,0.0,0.0,58,0.00,,---,0.00,VWS V14.01,2013-03-05 02:29:00,
2013-03-04 21:34:00,54.5,40.9,30.11,ENE,73,0.0,0.0,60,0.00,,---,0.00,VWS V14.01,2013-03-05 02:34:00,
2013-03-04 21:39:00,54.4,41.2,30.11,ENE,73,0.0,0.0,61,0.00,,---,0.00,VWS V14.01,2013-03-05 02:39:00,
2013-03-04 21:44:00,54.1,41.4,30.11,ENE,74,0.0,0.0,62,0.00,,---,0.00,VWS V14.01,2013-03-05 02:44:00,
2013-03-04 21:49:00,53.9,41.2,30.12,ENE,73,0.0,0.0,62,0.00,,---,0.00,VWS V14.01,2013-03-05 02:49:00,
2013-03-04 21:54:00,53.6,40.5,30.12,ENE,73,0.0,0.0,61,0.00,,---,0.00,VWS V14.01,2013-03-05 02:54:00,
2013-03-04 21:59:00,53.5,40.8,30.12,ENE,73,0.0,0.0,62,0.00,,---,0.00,VWS V14.01,2013-03-05 02:59:00,
2013-03-04 22:04:00,53.3,40.6,30.12,ENE,73,0.0,0.0,62,0.00,,---,0.00,VWS V14.01,2013-03-05 03:04:00,
2013-03-04 22:09:00,53.2,41.0,30.12,ENE,73,0.0,0.0,63,0.00,,---,0.00,VWS V14.01,2013-03-05 03:09:00,
2013-03-04 22:14:00,53.1,41.3,30.12,ENE,73,0.0,0.0,64,0.00,,---,0.00,VWS V14.01,2013-03-05 03:14:00,
2013-03-04 22:20:00,52.9,41.5,30.12,ENE,73,0.0,0.0,65,0.00,,---,0.00,VWS V14.01,2013-03-05 03:20:00,
2013-03-04 22:25:00,52.6,42.0,30.12,ENE,73,0.0,0.0,67,0.00,,---,0.00,VWS V14.01,2013-03-05 03:25:00,
2013-03-04 22:30:00,52.5,41.9,30.12,ENE,73,0.0,0.0,67,0.00,,---,0.00,VWS V14.01,2013-03-05 03:30:00,
2013-03-04 22:35:00,52.3,42.5,30.11,ENE,73,0.0,0.0,69,0.00,,---,0.00,VWS V14.01,2013-03-05 03:35:00,
2013-03-04 22:40:00,52.2,42.7,30.11,ENE,73,0.0,0.0,70,0.00,,---,0.00,VWS V14.01,2013-03-05 03:40:00,
2013-03-04 22:45:00,51.9,42.8,30.11,ENE,73,0.0,0.0,71,0.00,,---,0.00,VWS V14.01,2013-03-05 03:45:00,
2013-03-04 22:50:00,51.7,42.6,30.11,ENE,73,0.0,0.0,71,0.00,,---,0.00,VWS V14.01,2013-03-05 03:50:00,
2013-03-04 22:55:00,51.6,42.9,30.11,ENE,73,0.0,0.0,72,0.00,,---,0.00,VWS V14.01,2013-03-05 03:55:00,
2013-03-04 23:00:00,51.3,42.6,30.11,ENE,73,0.0,0.0,72,0.00,,---,0.00,VWS V14.01,2013-03-05 04:00:00,
2013-03-04 23:05:00,51.1,42.4,30.11,ENE,73,0.0,0.0,72,0.00,,---,0.00,VWS V14.01,2013-03-05 04:05:00,
2013-03-04 23:11:00,51.0,42.7,30.11,ENE,73,0.0,0.0,73,0.00,,---,0.00,VWS V14.01,2013-03-05 04:11:00,
2013-03-04 23:16:00,51.0,43.0,30.11,ENE,73,0.0,0.0,74,0.00,,---,0.00,VWS V14.01,2013-03-05 04:16:00,
2013-03-04 23:21:00,50.7,42.7,30.11,ENE,73,0.0,0.0,74,0.00,,---,0.00,VWS V14.01,2013-03-05 04:21:00,
2013-03-04 23:26:00,50.5,42.5,30.11,ENE,73,0.0,0.0,74,0.00,,---,0.00,VWS V14.01,2013-03-05 04:26:00,
2013-03-04 23:31:00,50.4,42.4,30.11,ENE,73,0.0,0.0,74,0.00,,---,0.00,VWS V14.01,2013-03-05 04:31:00,
2013-03-04 23:36:00,50.2,42.2,30.11,ENE,73,0.0,0.0,74,0.00,,---,0.00,VWS V14.01,2013-03-05 04:36:00,
2013-03-04 23:41:00,50.2,42.9,30.11,ENE,73,0.0,0.0,76,0.00,,---,0.00,VWS V14.01,2013-03-05 04:41:00,
2013-03-04 23:46:00,50.4,43.5,30.11,ENE,73,0.0,0.0,77,0.00,,---,0.00,VWS V14.01,2013-03-05 04:46:00,
2013-03-04 23:51:00,50.4,43.8,30.11,ENE,73,0.0,0.0,78,0.00,,---,0.00,VWS V14.01,2013-03-05 04:51:00,
2013-03-04 23:56:00,50.2,44.0,30.11,ENE,73,0.0,0.0,79,0.00,,---,0.00,VWS V14.01,2013-03-05 04:56:00,